Dewpoint
8 7 9 8 9 9 9 8 5 9 9 9 7 11 11 12 8 8 14 15 13 12 14 14 11 12 10 7 4 12 13 11 8 8 8 11 12 14 13 11 6 -6 -1 -2 1 4 3 -1 -1
8 8 8 8 9 9 8 5 5 8 8 8 8 8 12 13 14 14 14 15 14 12 14 13 11 13 11 4 6 12 14 12 10 11 11 12 14 14 12 8 -3 -4 -1 -1 1 1 1 1 -0
8 8 8 10 9 8 6 2 2 4 8 10 10 9 11 13 14 14 14 15 14 13 13 13 11 12 11 6 3 12 13 15 13 12 12 14 14 13 8 0 -6 -0 -1 1 2 2 2 2 2
8 9 8 8 8 7 4 1 -1 5 9 9 9 11 11 12 14 14 14 14 13 13 13 12 11 12 10 9 8 13 13 15 15 15 15 14 13 10 4 -5 -2 -1 -0 2 1 2 2 3 3
8 8 8 8 8 7 4 2 1 4 8 10 10 10 11 12 14 14 14 14 13 13 13 11 13 12 9 7 4 10 13 14 14 14 14 12 8 -2 -5 -4 -0 1 1 2 3 4 4 4 4
7 7 9 8 7 5 5 3 2 2 8 10 9 9 9 9 13 15 14 14 13 13 12 12 13 11 8 3 2 1 9 11 13 13 12 10 -0 -3 -5 0 2 2 2 3 4 5 5 4 5
6 7 6 5 5 5 5 4 3 1 7 10 9 10 10 9 9 15 13 14 13 12 11 14 13 10 7 7 9 1 -4 -0 4 5 2 -1 -2 -4 -4 -0 2 2 3 3 4 4 4 4 3
5 5 5 5 5 6 4 4 3 0 2 8 9 11 12 9 9 12 15 14 12 12 13 13 12 9 7 13 9 9 2 -5 -7 -9 8 -3 -3 -3 -2 -1 0 2 3 4 3 3 2 1 1
5 5 5 4 6 5 4 5 4 3 3 7 9 8 8 8 9 12 15 14 13 13 14 13 11 6 5 12 12 12 9 0 -3 -4 -2 -3 -3 -3 -2 -1 -0 0 1 2 2 1 1 1 1
4 5 3 1 3 4 4 4 4 5 5 8 9 10 8 10 10 12 11 14 13 14 14 13 11 6 4 7 12 12 12 8 0 -3 -2 -1 -2 -2 -2 -1 -1 -0 -0 0 1 1 1 1 1
2 4 1 0 1 4 5 5 4 5 7 6 9 10 9 8 10 11 8 11 13 13 13 13 11 9 8 5 8 12 12 10 6 3 -2 -2 -2 -2 -2 -2 -1 -1 -0 0 0 1 0 0 2
3 1 1 2 2 4 5 7 6 7 5 7 10 7 9 9 9 9 9 9 12 13 12 13 11 12 10 9 7 7 12 13 11 8 6 1 -1 -1 -1 -1 -0 0 0 0 1 1 1 2 4
1 -0 1 2 3 4 5 6 7 7 4 5 10 10 9 8 8 7 7 7 9 12 11 12 11 13 12 9 5 5 7 11 12 11 7 5 4 3 3 3 3 2 2 1 1 3 4 5 6
2 1 2 3 2 4 6 5 6 7 6 6 8 10 9 8 7 8 9 7 7 8 12 10 11 10 10 10 8 5 6 7 11 12 10 7 6 6 7 6 4 3 3 2 4 5 5 6 8
0 3 4 3 3 4 5 5 4 7 7 7 7 11 10 9 6 5 6 7 7 7 10 9 8 8 9 10 10 6 6 6 6 9 10 11 9 10 10 8 7 6 6 5 4 4 6 8 9
4 4 5 4 4 4 3 5 6 6 7 8 8 9 11 10 10 9 6 7 9 9 8 8 7 7 5 7 10 10 4 5 8 7 9 8 9 8 9 9 8 8 7 6 5 6 7 9 10
5 5 5 6 4 5 4 5 5 6 6 6 7 10 9 13 12 12 6 6 7 10 7 7 6 5 5 6 7 9 10 9 5 5 7 8 10 11 11 11 10 10 9 8 8 8 10 11 12
5 4 4 5 6 4 5 4 3 6 6 7 5 7 12 11 10 9 8 8 9 9 8 8 6 4 5 6 7 9 9 9 10 10 10 11 12 12 12 11 11 11 10 9 10 11 11 11 10
4 5 5 6 6 5 5 5 5 5 6 6 6 6 9 11 11 12 11 11 10 8 9 7 8 7 5 6 9 7 7 7 7 8 11 11 11 12 12 12 12 11 10 10 11 11 10 11 9
5 5 6 6 5 4 5 5 5 5 6 6 6 5 6 10 10 8 9 11 11 10 9 9 8 7 7 7 9 9 6 7 6 7 10 11 11 11 12 12 11 11 11 12 11 11 10 10 10
5 5 6 6 6 4 5 6 6 6 6 6 6 5 5 5 8 9 9 10 8 9 8 8 8 7 7 8 8 8 5 7 7 9 10 10 10 11 11 11 11 12 12 11 11 11 12 12 11
6 5 4 6 6 7 5 7 6 6 6 6 6 6 4 4 4 5 8 8 9 9 8 8 9 8 8 8 9 9 10 10 9 10 10 10 10 10 11 10 11 12 11 10 9 9 9 9 9
6 5 5 6 7 7 7 7 6 5 6 5 6 6 4 3 4 4 4 4 5 7 8 9 10 11 10 11 11 12 12 10 8 11 10 10 10 11 11 11 11 11 10 9 9 8 7 8 -1
5 5 6 6 6 7 7 6 3 5 4 4 6 5 5 3 3 4 3 3 3 3 3 3 5 8 10 10 10 10 10 10 8 10 10 10 9 11 10 11 10 11 10 8 7 6 7 1 -3
5 7 8 7 6 7 5 5 3 1 -2 -1 4 2 4 4 2 3 4 3 3 2 2 2 3 3 3 7 10 9 10 10 10 10 10 10 9 10 11 10 10 10 8 7 7 5 -2 -0 3
6 5 6 7 7 8 5 7 3 -3 -2 -1 -1 0 0 0 2 2 3 3 3 2 3 3 3 3 2 3 4 8 8 8 8 8 9 9 10 10 10 10 8 8 8 7 4 1 4 3 3
6 4 1 2 2 6 4 1 -4 -3 -2 -2 -2 -2 -1 -1 0 1 1 1 2 2 2 2 2 2 2 2 3 2 5 6 6 6 8 9 9 10 10 9 8 8 6 1 2 4 3 3 3
3 1 3 3 4 4 2 1 -0 -2 -1 -2 -1 -1 -1 -1 -2 -2 -1 1 2 2 2 1 1 1 2 2 3 3 3 2 2 2 1 6 9 9 9 8 9 7 1 1 3 3 3 3 3
3 3 2 2 2 3 3 0 -4 -2 -3 -0 -0 0 -1 -2 -2 -1 -2 -2 -3 -2 0 2 2 2 3 2 2 2 2 2 2 1 1 2 9 9 9 10 8 3 0 3 4 3 3 3 1
3 3 -0 3 3 0 1 1 -3 -3 -3 -1 -0 1 0 -0 -1 -1 -1 -1 -1 -2 -2 -3 -3 1 3 3 3 3 3 2 2 2 2 3 8 9 9 7 3 0 3 4 3 2 1 0 -1
Wind_Speed
11 13 6 5 3 2 11 9 2 9 8 15 3 2 2 1 2 1 6 15 33 32 28 24 18 16 14 13 19 20 17 18 20 23 22 22 19 18 15 17 12 16 18 19 21 20 19 20 19
13 10 5 4 5 8 12 10 17 9 12 22 10 8 3 2 3 4 6 15 33 31 28 23 19 17 14 15 21 22 18 20 22 23 23 21 20 17 16 13 16 19 20 21 20 20 20 19 19
11 8 6 4 7 19 11 8 13 5 10 16 9 7 8 3 2 3 4 19 32 30 27 23 20 17 14 17 22 23 21 20 22 22 22 23 19 17 13 15 19 20 21 20 19 20 18 18 17
7 6 6 9 15 16 14 6 11 10 5 11 22 8 8 7 3 6 9 25 32 29 25 22 20 16 14 18 21 25 22 21 23 24 23 20 16 14 14 20 21 21 21 19 19 18 17 15 14
9 3 6 10 19 8 10 19 9 15 14 13 29 15 13 10 8 9 16 28 30 28 24 22 20 17 15 17 19 23 22 20 20 20 17 15 12 16 20 21 21 20 20 18 17 16 15 13 12
5 5 7 17 20 20 16 16 26 14 13 17 16 24 27 32 10 13 20 30 30 28 24 22 20 15 16 18 17 20 22 21 19 17 16 14 16 21 22 22 20 19 18 16 14 12 11 10 9
6 7 16 18 20 20 17 21 16 20 10 15 14 16 17 31 30 15 21 31 31 28 26 24 20 16 18 20 17 15 17 18 19 19 17 18 21 22 22 21 20 18 17 15 12 10 8 7 5
9 4 17 14 16 22 20 13 26 15 21 14 23 10 8 38 29 18 26 34 32 30 27 24 18 17 22 22 18 15 14 15 17 20 20 24 24 22 22 21 18 16 14 12 10 7 4 3 2
13 7 12 19 21 17 14 15 37 18 13 16 20 12 17 34 33 22 25 36 31 30 28 23 17 17 22 24 21 16 13 14 16 18 20 22 21 20 19 17 16 14 13 11 9 7 5 3 1
12 10 18 12 17 11 11 15 18 12 21 14 19 8 20 35 29 18 19 38 34 29 28 22 16 18 21 25 23 20 13 15 16 17 18 18 18 18 17 17 15 14 12 11 9 7 6 4 4
11 14 14 18 27 16 10 9 17 16 15 18 24 27 34 29 27 14 13 11 25 26 25 23 20 19 19 20 23 23 19 16 16 16 16 17 18 18 17 16 14 13 11 10 9 8 7 6 5
12 19 22 19 22 16 13 6 10 22 31 18 26 39 36 28 25 24 13 11 8 25 26 25 22 19 18 16 17 22 22 19 16 16 15 15 15 15 15 14 12 12 11 10 9 8 8 7 5
15 16 18 28 27 16 16 11 6 17 35 34 23 36 40 32 22 18 23 28 18 17 25 25 23 21 17 14 14 18 21 20 16 15 15 15 15 14 13 12 10 11 10 9 9 9 8 7 6
3 13 22 18 21 17 9 16 11 9 21 32 24 37 44 35 17 20 36 38 30 24 23 20 18 16 16 13 13 15 16 17 18 17 15 13 14 14 12 10 10 9 9 9 9 9 8 7 6
13 10 17 18 13 6 6 10 9 14 17 29 31 31 40 30 26 26 36 40 29 31 18 20 19 15 11 8 9 13 17 17 17 17 17 16 15 13 12 11 9 10 10 9 9 8 8 7 6
6 11 6 10 8 4 8 12 6 6 3 18 22 30 33 40 45 42 42 37 36 31 31 25 19 15 17 14 10 11 13 16 17 17 17 16 16 13 13 12 11 11 11 10 9 8 8 7 7
7 2 7 4 13 7 3 3 9 4 8 8 5 15 30 31 34 37 46 39 34 37 30 16 17 24 15 20 20 15 12 13 15 18 19 17 15 14 14 13 12 12 12 11 10 9 8 7 7
7 5 3 5 7 9 8 7 21 6 9 9 11 8 23 34 30 40 47 42 39 37 22 22 13 13 14 17 23 20 15 18 15 18 20 20 19 16 13 12 14 14 14 12 10 8 7 7 9
4 10 9 7 7 7 11 6 17 7 6 8 12 12 12 19 20 17 27 34 36 33 22 23 25 20 10 33 24 19 14 23 19 22 23 24 23 21 18 15 16 17 14 11 9 8 8 9 10
5 9 8 10 5 8 5 8 17 5 1 2 6 12 11 16 18 12 14 25 28 29 33 23 24 27 25 24 30 24 22 19 24 22 23 22 23 24 26 18 17 17 15 14 9 8 9 12 13
3 6 6 7 6 7 3 3 6 2 3 3 2 4 6 12 19 27 32 33 31 28 26 27 33 31 31 29 25 29 26 15 25 29 27 29 24 26 27 23 22 22 21 14 13 12 14 14 14
4 1 7 14 7 3 2 5 4 6 5 1 5 5 2 6 12 14 18 28 26 26 24 28 36 39 33 30 27 28 28 27 27 27 23 23 30 27 24 21 23 24 16 12 9 9 15 18 18
2 1 9 9 3 6 2 1 1 2 7 3 5 9 6 4 8 12 14 13 12 12 13 18 21 28 36 31 28 27 27 26 29 30 31 25 26 30 37 23 21 21 17 18 18 11 12 19 17
1 5 7 3 3 3 2 2 3 1 3 3 6 11 8 9 7 9 10 8 6 8 10 10 10 13 20 22 23 25 26 25 30 34 25 23 25 18 16 14 17 16 17 16 11 7 17 15 16
7 3 3 2 3 2 3 3 3 8 5 1 11 13 11 15 16 11 10 11 9 10 11 14 14 11 12 15 19 20 21 20 19 21 21 22 23 21 17 14 13 13 14 14 15 15 12 9 14
3 2 2 4 3 4 2 4 5 6 8 9 9 1 5 12 6 7 10 13 13 13 12 11 16 16 15 14 13 15 16 15 15 17 17 18 18 17 18 18 17 19 20 15 13 8 9 11 13
3 3 1 5 3 4 2 1 4 10 15 15 16 17 18 18 15 11 4 7 14 13 12 11 13 15 14 16 17 14 14 14 14 14 15 16 16 16 16 17 18 19 16 14 14 10 13 16 17
1 2 2 3 3 4 2 2 2 6 6 5 8 13 17 19 19 16 15 12 5 6 7 6 6 8 11 11 13 13 12 12 12 12 13 14 16 17 17 19 19 18 18 17 13 16 16 18 19
3 2 4 4 3 3 3 1 2 3 0 4 5 16 20 21 19 19 18 16 13 10 5 1 2 4 4 7 9 10 10 10 10 11 11 12 16 20 22 22 21 21 20 16 15 16 12 21 20
0 2 3 3 2 4 2 2 4 4 4 8 10 14 16 16 15 13 13 12 11 11 9 7 3 2 5 6 8 10 10 11 11 10 10 11 14 18 20 22 22 20 17 16 14 12 15 18 17
Wind_Direction
233 233 226 181 174 228 224 225 264 179 184 202 266 336 303 61 227 257 315 178 171 170 169 171 169 163 160 160 152 147 142 145 147 153 153 151 151 155 152 143 131 128 124 123 120 121 117 108 102
229 233 205 166 210 218 222 217 221 204 192 187 253 340 299 286 336 297 146 171 170 168 166 168 166 165 160 157 155 152 140 150 151 152 151 151 153 151 143 142 135 130 127 124 120 117 114 109 102
228 210 187 198 218 227 227 212 225 214 179 155 184 304 318 286 293 216 205 168 169 168 167 164 166 166 161 158 159 158 151 135 151 153 151 149 151 151 146 141 136 135 132 126 124 123 119 112 103
214 203 236 234 226 231 226 219 218 200 134 170 175 253 308 284 217 199 180 170 169 167 165 163 167 165 166 158 158 162 160 146 141 143 142 146 150 151 153 142 140 139 135 131 126 125 121 114 104
205 214 224 230 237 224 229 249 276 206 180 180 165 195 237 302 243 187 176 171 170 166 167 166 167 166 166 162 160 167 165 165 156 149 154 155 151 152 146 143 144 144 140 138 133 126 120 113 106
219 220 227 225 230 224 232 246 258 261 189 176 175 166 217 251 275 191 180 173 172 168 168 168 167 167 165 159 152 163 173 174 174 172 171 168 154 149 147 147 148 149 148 144 139 130 124 115 106
224 219 231 230 227 221 223 232 254 255 206 178 182 163 188 227 238 195 181 177 175 170 168 166 170 165 161 151 153 153 162 176 182 182 177 156 154 152 152 153 153 154 155 154 148 142 133 123 111
227 244 239 235 233 228 222 222 238 242 234 219 184 178 189 203 224 228 191 184 177 170 170 169 170 170 162 157 153 152 151 156 167 167 153 160 158 157 156 156 157 158 159 161 160 156 151 136 112
230 233 235 229 232 225 206 211 241 252 255 207 194 203 202 191 203 205 196 181 174 170 170 168 170 169 166 162 156 160 162 151 153 156 159 157 159 157 154 155 157 160 164 168 170 174 180 191 212
217 229 234 236 240 238 219 209 232 265 256 227 204 201 184 183 189 202 294 155 166 170 166 164 165 164 161 168 163 162 173 165 157 158 159 161 160 161 162 164 167 169 174 179 183 190 200 210 218
228 236 246 247 257 245 241 234 234 235 270 235 205 193 172 167 153 144 300 338 166 173 168 162 164 166 157 164 174 174 175 182 172 161 165 168 170 171 171 175 179 181 186 190 195 202 209 215 219
239 236 243 254 253 256 227 283 238 212 239 265 211 206 180 169 160 177 231 278 194 179 178 171 171 165 163 161 173 187 186 187 187 174 178 177 179 180 180 183 189 193 197 203 206 210 211 207 210
225 230 246 244 259 275 245 249 298 256 238 258 220 193 183 172 165 176 203 206 195 214 191 181 173 171 173 166 168 183 195 198 200 194 188 189 193 192 191 195 204 212 214 213 211 206 205 208 214
218 239 245 263 243 247 236 261 337 278 240 244 223 194 189 170 158 190 204 197 195 206 199 188 183 172 174 174 168 174 190 204 210 204 204 201 197 197 202 215 218 214 212 214 208 211 210 212 217
227 287 248 236 228 236 161 275 257 289 270 233 222 191 186 186 195 201 197 184 184 186 187 193 182 181 180 198 191 186 188 197 213 218 216 216 211 215 220 225 224 221 220 216 217 222 223 225 234
210 232 193 196 180 64 156 237 290 304 245 206 221 195 177 185 198 194 184 181 178 175 169 190 188 193 208 226 209 203 203 204 202 211 217 218 217 221 223 231 229 224 226 224 223 228 231 239 249
196 190 207 147 188 127 130 317 297 301 57 103 101 194 190 183 188 191 183 186 193 173 171 180 169 222 250 219 228 226 213 216 217 211 211 214 218 224 229 234 231 230 228 227 223 223 231 252 270
162 139 151 155 176 191 166 261 282 343 39 61 69 101 179 194 192 190 196 192 194 188 184 191 178 148 222 217 218 211 226 233 229 227 217 211 214 217 230 239 228 228 227 221 223 229 248 265 275
168 142 129 93 96 140 206 302 287 323 30 49 52 80 124 177 171 169 189 186 196 186 201 204 199 224 181 221 216 203 223 246 256 245 234 233 224 222 228 236 228 225 226 216 214 217 235 262 267
177 135 124 102 122 111 89 260 274 335 316 348 38 63 100 155 179 209 179 192 201 202 197 199 212 213 199 218 221 220 250 245 259 263 240 241 243 237 223 220 216 215 212 209 212 231 252 263 274
138 148 165 127 155 98 194 278 281 57 282 299 6 37 105 141 161 198 202 199 203 212 206 210 212 206 205 210 215 218 207 209 236 248 253 251 249 254 254 230 221 220 216 216 226 236 242 275 281
149 339 158 146 131 106 26 314 50 294 301 308 308 320 0 116 152 161 180 199 204 222 221 222 216 215 213 212 225 229 223 232 248 255 268 252 239 256 246 240 234 226 205 214 245 274 285 287 283
54 26 149 157 111 117 49 279 334 200 224 272 277 279 297 258 186 167 154 148 154 179 201 228 230 225 219 226 236 247 235 230 253 255 255 260 265 265 248 242 238 233 230 245 268 278 297 294 291
274 82 60 63 42 74 224 63 332 141 25 145 248 270 264 291 232 210 195 183 206 212 222 221 214 227 233 237 239 240 247 249 240 255 236 245 258 259 265 247 229 225 223 218 223 257 278 276 293
83 50 114 74 32 72 23 31 299 326 348 277 173 191 168 257 229 215 229 232 228 228 239 236 228 220 226 233 233 238 242 241 250 250 250 239 241 233 233 212 228 223 211 218 223 231 237 262 295
126 238 112 132 145 95 33 350 350 343 22 69 105 123 169 203 187 193 212 224 229 236 242 251 234 239 243 235 235 235 245 245 247 252 252 249 247 241 227 225 234 220 217 222 226 217 281 288 297
308 44 239 109 67 92 330 360 28 8 40 44 76 89 93 101 101 94 114 207 212 219 230 251 238 242 252 239 241 242 241 245 247 250 249 243 240 237 229 212 210 216 216 207 205 276 294 301 303
295 308 83 9 91 84 15 49 84 13 38 16 64 79 83 86 85 81 73 72 114 204 229 245 244 251 255 242 232 235 240 249 254 258 256 245 227 218 217 214 215 213 209 210 252 275 279 292 297
345 21 48 107 58 128 132 62 172 269 245 120 88 93 93 88 83 79 77 75 70 69 77 75 275 276 257 240 242 247 254 259 262 261 258 248 232 219 214 213 210 208 211 235 263 267 282 288 286
30 77 60 92 309 52 77 355 352 239 187 137 103 93 88 85 82 75 66 63 60 54 50 48 39 278 254 251 251 253 256 259 259 255 246 234 223 217 212 207 207 209 233 252 258 284 281 283 282
Height
1514 1514 1517 1520 1528 1525 1513 1506 1503 1502 1507 1508 1513 1511 1510 1510 1508 1511 1505 1506 1509 1513 1518 1523 1526 1527 1529 1532 1534 1536 1538 1540 1542 1544 1547 1549 1552 1555 1556 1558 1559 1560 1562 1563 1565 1567 1568 1569 1570
1512 1514 1517 1518 1520 1517 1502 1503 1501 1501 1500 1503 1510 1509 1510 1507 1508 1508 1506 1506 1511 1515 1518 1522 1526 1527 1529 1532 1534 1537 1539 1541 1543 1545 1548 1550 1553 1556 1558 1559 1560 1562 1564 1565 1566 1568 1569 1571 1571
1510 1512 1515 1514 1508 1494 1500 1501 1501 1500 1500 1502 1510 1512 1511 1509 1508 1508 1506 1507 1512 1516 1519 1522 1526 1527 1529 1532 1534 1537 1540 1542 1544 1547 1550 1552 1554 1556 1558 1560 1562 1564 1565 1567 1568 1570 1571 1572 1573
1508 1511 1512 1504 1497 1493 1498 1497 1496 1498 1501 1500 1497 1514 1511 1512 1509 1508 1507 1508 1511 1516 1521 1523 1526 1528 1530 1532 1534 1537 1540 1543 1545 1548 1551 1553 1555 1557 1558 1561 1563 1565 1567 1568 1570 1571 1573 1574 1575
1505 1506 1503 1498 1496 1495 1498 1497 1496 1493 1494 1497 1497 1501 1512 1511 1507 1506 1507 1509 1512 1517 1521 1523 1526 1528 1530 1532 1535 1538 1541 1544 1546 1549 1551 1553 1555 1557 1560 1562 1565 1567 1568 1570 1572 1573 1574 1575 1576
1504 1502 1496 1492 1487 1490 1495 1497 1495 1494 1490 1493 1496 1496 1505 1510 1509 1507 1507 1510 1512 1515 1519 1523 1525 1528 1530 1533 1535 1538 1541 1544 1547 1549 1551 1554 1556 1558 1560 1563 1566 1568 1570 1571 1573 1574 1575 1576 1577
1500 1498 1489 1484 1480 1483 1487 1493 1495 1492 1490 1490 1491 1493 1493 1500 1505 1507 1506 1508 1511 1513 1518 1522 1525 1527 1530 1533 1535 1539 1542 1544 1547 1549 1551 1553 1556 1559 1561 1564 1566 1569 1571 1572 1574 1575 1576 1577 1577
1498 1497 1488 1485 1482 1479 1482 1491 1489 1488 1486 1483 1484 1483 1489 1490 1500 1504 1505 1506 1507 1510 1514 1518 1524 1527 1529 1533 1535 1539 1542 1544 1546 1548 1550 1553 1556 1559 1562 1564 1567 1569 1572 1573 1574 1575 1576 1577 1577
1494 1494 1487 1483 1481 1476 1479 1485 1484 1485 1484 1481 1480 1480 1476 1475 1495 1501 1503 1504 1509 1509 1511 1516 1522 1525 1528 1533 1535 1539 1542 1545 1547 1549 1552 1555 1558 1561 1563 1566 1568 1570 1572 1574 1575 1575 1576 1577 1577
1491 1486 1481 1479 1479 1476 1478 1480 1479 1484 1479 1477 1476 1475 1475 1480 1480 1494 1490 1467 1500 1511 1509 1513 1520 1524 1528 1532 1535 1539 1542 1545 1547 1550 1553 1556 1558 1561 1563 1565 1567 1569 1571 1573 1574 1575 1575 1576 1576
1484 1482 1480 1479 1477 1478 1476 1475 1477 1480 1478 1472 1472 1473 1477 1478 1480 1495 1500 1492 1503 1509 1510 1513 1516 1522 1527 1531 1535 1539 1542 1544 1548 1550 1553 1556 1558 1560 1562 1564 1567 1568 1570 1572 1573 1574 1574 1575 1576
1482 1479 1479 1477 1477 1476 1473 1477 1475 1477 1473 1471 1470 1467 1471 1476 1481 1492 1504 1500 1498 1503 1507 1513 1516 1520 1525 1529 1533 1538 1541 1544 1546 1549 1552 1555 1558 1560 1561 1564 1566 1567 1568 1570 1571 1572 1573 1574 1574
1476 1474 1474 1474 1474 1474 1473 1473 1478 1473 1472 1470 1470 1469 1471 1476 1483 1491 1503 1507 1499 1503 1508 1511 1514 1519 1524 1527 1531 1535 1539 1543 1546 1549 1552 1554 1557 1559 1561 1563 1564 1566 1567 1568 1569 1571 1571 1572 1573
1469 1471 1471 1470 1470 1471 1471 1468 1474 1466 1468 1467 1466 1465 1468 1474 1479 1487 1493 1495 1494 1500 1507 1512 1516 1519 1523 1526 1529 1532 1537 1541 1544 1547 1551 1553 1556 1558 1560 1561 1563 1564 1565 1567 1568 1569 1570 1571 1572
1469 1473 1467 1467 1466 1467 1470 1470 1469 1470 1466 1462 1462 1463 1465 1470 1474 1476 1480 1484 1487 1493 1506 1513 1515 1519 1521 1525 1528 1530 1533 1537 1542 1546 1549 1552 1554 1557 1559 1560 1561 1563 1564 1565 1567 1568 1569 1569 1570
1467 1467 1462 1460 1463 1469 1467 1462 1470 1473 1462 1458 1457 1456 1458 1460 1462 1469 1475 1485 1489 1498 1503 1514 1514 1517 1515 1522 1526 1529 1532 1535 1538 1542 1547 1549 1552 1554 1556 1558 1560 1561 1562 1564 1565 1567 1568 1569 1569
1463 1460 1458 1461 1462 1466 1465 1465 1472 1465 1460 1458 1457 1456 1460 1464 1467 1472 1477 1485 1495 1500 1506 1513 1513 1513 1512 1518 1524 1528 1531 1534 1538 1540 1543 1546 1550 1552 1553 1555 1558 1559 1561 1562 1563 1564 1565 1568 1568
1454 1455 1455 1455 1461 1465 1470 1475 1477 1458 1457 1455 1455 1457 1459 1463 1468 1474 1481 1487 1492 1499 1503 1510 1510 1512 1514 1513 1520 1524 1529 1532 1536 1539 1542 1543 1546 1549 1551 1552 1554 1556 1558 1558 1561 1562 1564 1565 1566
1452 1451 1455 1458 1460 1464 1469 1474 1467 1457 1454 1454 1455 1456 1457 1461 1469 1477 1479 1484 1491 1495 1501 1503 1507 1511 1513 1511 1517 1523 1525 1529 1532 1535 1539 1541 1543 1545 1546 1548 1551 1553 1555 1557 1558 1559 1561 1562 1563
1451 1450 1456 1462 1460 1462 1466 1472 1457 1449 1453 1456 1455 1456 1461 1463 1469 1474 1479 1486 1490 1492 1496 1497 1502 1508 1511 1510 1512 1518 1523 1523 1525 1531 1535 1537 1538 1539 1541 1544 1547 1550 1552 1554 1556 1558 1558 1559 1561
1452 1449 1455 1456 1456 1455 1463 1467 1458 1449 1453 1453 1456 1459 1464 1469 1468 1475 1480 1483 1485 1491 1496 1500 1502 1504 1506 1509 1514 1518 1520 1522 1525 1527 1529 1533 1534 1535 1536 1539 1542 1544 1546 1550 1553 1554 1555 1557 1558
1449 1451 1449 1452 1451 1461 1460 1462 1460 1457 1453 1453 1454 1458 1461 1463 1469 1473 1477 1480 1488 1490 1496 1499 1500 1503 1505 1509 1513 1516 1518 1521 1524 1525 1527 1528 1529 1533 1533 1535 1537 1538 1541 1545 1549 1549 1552 1555 1556
1448 1448 1450 1454 1453 1455 1468 1467 1465 1460 1463 1454 1455 1457 1461 1468 1472 1475 1478 1480 1486 1490 1493 1495 1496 1499 1503 1504 1508 1507 1510 1514 1518 1520 1522 1524 1526 1527 1529 1529 1531 1533 1536 1540 1542 1546 1550 1552 1552
1451 1450 1453 1454 1456 1463 1467 1467 1454 1457 1450 1455 1456 1459 1463 1468 1470 1473 1476 1480 1485 1487 1492 1494 1494 1496 1498 1501 1503 1506 1508 1509 1513 1515 1517 1518 1519 1520 1520 1523 1528 1530 1534 1537 1540 1544 1546 1549 1549
1453 1456 1459 1464 1469 1468 1467 1466 1459 1455 1457 1456 1458 1466 1468 1473 1474 1472 1475 1480 1484 1488 1490 1490 1491 1492 1495 1497 1498 1502 1504 1506 1507 1511 1511 1512 1514 1514 1517 1521 1525 1528 1532 1534 1536 1538 1541 1542 1542
1456 1455 1453 1462 1466 1468 1468 1470 1462 1461 1458 1451 1454 1461 1466 1472 1468 1472 1476 1478 1479 1482 1482 1482 1485 1489 1492 1493 1494 1498 1501 1502 1503 1507 1508 1509 1510 1512 1514 1518 1520 1526 1529 1530 1532 1535 1536 1536 1536
1452 1458 1455 1460 1467 1466 1480 1472 1466 1462 1457 1461 1463 1466 1469 1469 1470 1473 1475 1476 1479 1482 1480 1481 1484 1486 1487 1490 1492 1495 1498 1500 1501 1501 1503 1505 1506 1508 1511 1513 1516 1522 1526 1526 1528 1528 1528 1529 1528
1453 1455 1458 1463 1468 1475 1476 1478 1482 1477 1474 1472 1470 1469 1468 1469 1472 1475 1475 1475 1477 1479 1479 1480 1482 1483 1485 1487 1490 1494 1496 1498 1498 1499 1501 1501 1502 1504 1507 1509 1513 1517 1520 1523 1523 1524 1522 1521 1522
1459 1456 1460 1464 1476 1467 1473 1478 1480 1479 1476 1476 1474 1471 1471 1472 1476 1478 1479 1479 1479 1479 1479 1481 1482 1483 1484 1485 1488 1489 1490 1493 1493 1494 1495 1495 1498 1501 1503 1506 1509 1513 1516 1517 1518 1519 1516 1518 1515
1462 1463 1464 1465 1470 1488 1481 1479 1479 1479 1478 1477 1476 1476 1476 1477 1477 1479 1481 1482 1484 1483 1483 1483 1483 1483 1484 1485 1487 1488 1488 1490 1491 1492 1493 1494 1497 1499 1501 1505 1508 1510 1512 1513 1512 1512 1513 1512 1512